Flag for Switzerland Weather past 2 weeks in Solothurn, Solothurn, Switzerland

Now
95 °F

Extremely hot.


Feels Like: 94 °F
Forecast: 65 / 95 °F
Wind: 3 mph from South

Location: Grenchen

Current Time: Jul 4, 2015 at 5:45:01 PM

Latest Report: Jul 4, 2015 at 5:00 PM


Visibility: N/A

Pressure: 30.05 "Hg

Humidity: 29%

Dew point: 58 °F

Location of SolothurnLocation

Historic Weather in Solothurn — Graph

°F

Solothurn temperature yesterday

Maximum temperature yesterday: 95 °F (at 6:00 PM)
Minimum temperature yesterday: 66 °F (at 7:00 AM)
Average temperature yesterday: 80 °F

Past Weeks' High & Low Weather Summary

 TemperatureHumidityPressure
High95 °F (Jul 2, 4:00 PM)100% (Jun 22, 6:00 AM)30.26 "Hg (Jun 22, 6:00 AM)
Low44 °F (Jun 24, 5:00 AM)23% (Jun 30, 4:00 PM)29.75 "Hg (Jun 22, 9:00 PM)
Average68 °F64%30.11 "Hg
* Reported Jun 19 4:00 PM — Jul 4 4:00 PM, Solothurn, Weather by CustomWeather, © 2015

Note: Actual official high and low records may vary slightly from our data, if they occured in-between our weather recording intervals... More about our weather records

Advertising

Solothurn weather history for previous 24 hours

 ConditionsComfort  
Time TempWeatherWind HumidityBarometerVisibility
4:00 PM
Sat, Jul 4
95 °FExtremely hot.3 mph28%30.06 "HgN/A
3:00 PM93 °FHot.6 mph32%30.08 "HgN/A
2:00 PM92 °FHot.8 mph34%30.10 "HgN/A
1:00 PM90 °FHot.9 mph37%30.12 "HgN/A
12:00 PM88 °FWarm.8 mph41%30.14 "HgN/A
11:00 AM84 °FWarm.6 mph54%30.16 "HgN/A
10:00 AM81 °FWarm.6 mph58%30.17 "HgN/A
9:00 AM77 °FWarm.3 mph66%30.18 "HgN/A
8:00 AM72 °FMild.3 mph78%30.19 "HgN/A
7:00 AM68 °FMild.1 mph91%30.20 "HgN/A
6:00 AM66 °FMild.1 mph93%30.20 "HgN/A
5:00 AM66 °FMild.1 mph92%30.19 "HgN/A
4:00 AM70 °FMild.2 mph84%30.18 "HgN/A
3:00 AM70 °FMild.No wind86%30.17 "HgN/A
2:00 AM72 °FMild.3 mph81%30.16 "HgN/A
1:00 AM72 °FMild.3 mph80%30.17 "HgN/A
12:00 AM73 °FMild.2 mph77%30.16 "HgN/A
11:00 PM
Fri, Jul 3
75 °FMild.3 mph71%30.15 "HgN/A
10:00 PM76 °FMild.5 mph71%30.14 "HgN/A
9:00 PM85 °FWarm.3 mph52%30.11 "HgN/A
8:00 PM88 °FHot.5 mph47%30.10 "HgN/A
7:00 PM94 °FExtremely hot.5 mph30%30.08 "HgN/A
6:00 PM95 °FExtremely hot.5 mph29%30.08 "HgN/A
5:00 PM95 °FExtremely hot.5 mph29%30.09 "HgN/A
Weather by CustomWeather, © 2015

See weather overviewHow to use our weather pages